[[{"header":{"parameterUnit":"m.s-1","parameterCategory":1,"la1":30.2991,"la2":30.254,"lo1":-89.0895,"lo2":-89.0444,"dy":0.0017,"dx":0.0017,"nx":28,"ny":28,"refTime":"2025-04-09T03:00:00:Z","depth":0,"parameterNumber":2,"parameterNumberName":"U-component_of_WINDS"},"data":[0,0,0,0,0,0,0,0,0,0,0,0,0,0,0,0,0,0,0,0,0,0,0,0,0,0,0,0,0,0,0,0,0,0,0,0,0,0,0,0,0,0,0,0,0,0,0,0,0,0,0,0,0,0,0,0,0,0,3.2588,3.2589,0,3.2691,3.2692,3.2693,3.2696,3.2695,3.2694,3.2692,3.2803,3.2807,3.2811,0,0,0,0,0,0,0,0,0,0,0,0,0,3.24,3.2403,3.2588,3.2589,3.2591,3.2691,3.2692,3.2694,3.2696,3.2695,3.2693,3.2692,3.2801,3.2806,3.2811,0,0,0,0,0,0,0,0,0,0,0,0,0,3.249,3.2404,3.2588,3.2604,3.2606,3.269,3.2692,3.2694,3.2697,3.2695,3.2693,3.2691,3.28,3.2806,3.2812,3.2888,0,0,3.2831,3.2833,0,0,0,0,0,0,0,0,3.2485,3.2497,3.26,3.2603,3.2606,3.2679,3.2666,3.2759,3.2697,3.2663,3.2692,3.269,3.2763,3.2772,3.2796,3.2893,3.2898,3.2831,3.2835,3.2837,3.2839,0,0,0,0,0,0,0,3.2479,3.2493,3.2629,3.2602,3.2605,3.2608,3.2619,3.2684,3.2723,3.2665,3.2666,3.2678,3.2764,3.279,3.2798,3.29,3.2831,3.2836,3.284,3.2843,3.3067,3.3069,0,0,0,0,0,0,3.2468,3.2487,3.2626,3.2632,3.2539,3.2613,3.2625,3.2657,3.2722,3.273,3.2679,3.2677,3.278,3.2791,3.2802,3.2896,3.2837,3.2843,3.2847,3.3064,3.3067,3.3069,0,0,0,0,0,0,3.2464,3.2481,3.2621,3.256,3.2578,3.2618,3.2655,3.266,3.2686,3.2732,3.274,3.2698,3.2779,3.2794,3.2867,3.29,3.2846,3.2852,3.3062,3.3065,3.3068,3.3084,0,0,0,0,0,0,3.2459,3.2479,3.2507,3.256,3.2581,3.2682,3.2657,3.2664,3.2696,3.2694,3.2751,3.2759,3.2779,3.2857,3.2873,3.2908,3.2856,3.3059,3.3063,3.3067,3.3081,3.3088,3.3094,0,0,0,0,0,3.2452,3.2508,3.2508,3.2525,3.2617,3.2684,3.2696,3.2716,3.2698,3.2728,3.2758,3.2757,3.2894,3.2865,3.2882,3.2919,3.3057,3.3062,3.3067,3.3078,3.3087,3.3094,0,0,0,0,0,0,3.2459,3.2515,3.2516,3.2591,3.2633,3.2684,3.2722,3.2724,3.2773,3.277,3.2794,3.2807,3.288,3.2908,3.2874,3.2998,3.2974,3.2982,3.2976,3.2985,3.2991,3.2982,3.2862,0,0,0,0,0,3.2469,3.2517,3.2565,3.2627,3.2647,3.2681,3.2711,3.2723,3.2768,3.2786,3.2821,3.2866,3.292,3.2954,3.3006,3.3086,3.3099,3.312,3.3127,3.3132,3.3139,3.3184,3.3194,3.3086,3.3086,3.3086,0,0,3.249,3.2527,3.2557,3.2629,3.2662,3.2714,3.2696,3.2751,3.2789,3.2795,3.2865,3.2893,3.2945,3.3022,3.3058,3.3047,3.3172,3.3138,3.3142,3.3146,3.319,3.32,3.3209,3.3089,3.3089,3.3088,0,0,3.2555,3.2588,3.2643,3.2677,3.2728,3.275,3.2764,3.2816,3.2834,3.2905,3.291,3.2958,3.3049,3.3086,3.3117,3.3198,3.32,3.3215,3.3247,3.3291,3.33,3.3307,3.3336,3.3346,3.3222,3.3222,3.3222,0,3.2576,3.2651,3.2671,3.2726,3.2758,3.2765,3.2822,3.2855,3.2921,3.2943,3.293,3.3045,3.3081,3.3167,3.3187,3.3212,3.3229,3.3207,3.3297,3.3305,3.3312,3.334,3.3351,3.3223,3.3223,3.3223,3.3223,0,3.2674,3.2727,3.2766,3.2827,3.2864,3.292,3.295,3.2986,3.2995,3.302,3.3093,3.3136,3.3197,3.3219,3.3229,3.3307,3.3299,3.3291,3.3267,3.3323,3.335,3.3361,3.3225,3.3225,3.3224,3.3224,0,0,3.2743,3.2817,3.2831,3.2859,3.2917,3.2959,3.3017,3.3075,3.3105,3.3151,3.32,3.3278,3.3271,3.3306,3.3322,3.336,3.3422,3.3348,3.335,3.336,3.3511,3.3515,3.3527,3.3424,3.3426,3.3428,3.3507,0,3.2814,3.2913,3.2934,3.3021,3.307,3.3079,3.3129,3.3171,3.3196,3.3244,3.3273,3.3327,3.3314,3.3336,3.3374,3.3406,3.3453,3.3401,3.3471,3.3473,3.3456,3.3541,3.3546,3.3617,3.3517,3.3519,3.352,0,3.2909,3.2956,3.3047,3.3099,3.3121,3.3165,3.3221,3.3266,3.3315,3.3331,3.337,3.3382,3.3443,3.3418,3.3504,3.3469,3.3499,3.3519,3.3523,3.3529,3.3499,3.3549,3.3641,3.3651,3.3537,3.3536,3.3534,0,3.2949,3.3036,3.3102,3.3127,3.3189,3.3221,3.3249,3.3295,3.3329,3.3379,3.3402,3.3459,3.349,3.3534,3.3562,3.3541,3.3646,3.3623,3.3661,3.3661,3.3682,3.368,3.3779,3.3704,3.3703,3.3703,3.3703,0,3.3025,3.308,3.3121,3.3162,3.3225,3.325,3.3312,3.334,3.3382,3.343,3.3442,3.3487,3.352,3.357,3.3593,3.3661,3.3675,3.369,3.3695,3.3688,3.3686,3.3708,3.3703,3.3706,3.3705,3.3705,3.3704,0,3.308,3.311,3.3182,3.3236,3.3251,3.3295,3.3342,3.3383,3.3409,3.3469,3.3485,3.3526,3.3586,3.3618,3.3693,3.3708,3.3784,3.3787,3.3767,3.3769,3.3805,3.3801,3.392,3.3937,3.3852,3.3853,3.3853,0,3.3125,3.3168,3.3227,3.3259,3.3287,3.3339,3.3373,3.3401,3.3437,3.3497,3.3531,3.3591,3.364,3.3735,3.3773,3.3831,3.3835,3.3873,3.3844,3.3836,3.3835,3.3831,3.3836,3.3877,3.3878,3.3879,3.3879,0,3.3203,3.3216,3.3264,3.3319,3.336,3.3405,3.3449,3.3475,3.351,3.3551,3.3611,3.3649,3.3726,3.3786,3.3847,3.3878,3.3885,3.3889,3.39,3.3893,3.3879,3.3886,3.378,3.3885,3.3885,3.3884,3.3884,3.3884,3.3254,3.3292,3.334,3.3394,3.3431,3.3472,3.3513,3.3545,3.3595,3.3658,3.3672,3.3736,3.3787,3.3869,3.3902,3.3954,3.3946,3.3964,3.3968,3.3971,3.3972,3.3872,3.3965,3.3965,3.3965,3.3965,3.3965,0,3.3331,3.3362,3.3412,3.3474,3.3517,3.352,3.357,3.3606,3.3662,3.3707,3.3755,3.3826,3.3884,3.3928,3.3988,3.4021,3.4026,3.4036,3.4033,3.404,3.3976,3.3959,3.4031,3.4031,3.4031,3.4031,3.4031,3.4031,3.3376,3.3441,3.346,3.3545,3.3577,3.3638,3.3666,3.3706,3.3742,3.3819,3.3868,3.3895,3.3941,3.4004,3.4059,3.4071,3.4092,3.4101,3.4113,3.4052,3.4045,3.4038,3.4022,3.4106,3.4106,3.4173,3.4173,3.4174]},{"header":{"parameterUnit":"m.s-1","parameterCategory":1,"la1":30.2991,"la2":30.254,"lo1":-89.0895,"lo2":-89.0444,"dy":0.0017,"dx":0.0017,"nx":28,"ny":28,"refTime":"2025-04-09T03:00:00:Z","depth":0,"parameterNumber":3,"parameterNumberName":"V-component_of_WINDS"},"data":[0,0,0,0,0,0,0,0,0,0,0,0,0,0,0,0,0,0,0,0,0,0,0,0,0,0,0,0,0,0,0,0,0,0,0,0,0,0,0,0,0,0,0,0,0,0,0,0,0,0,0,0,0,0,0,0,0,0,3.458,3.4582,0,3.4703,3.4704,3.4706,3.4735,3.4734,3.4733,3.4732,3.485,3.4854,3.4858,0,0,0,0,0,0,0,0,0,0,0,0,0,3.4361,3.4365,3.458,3.4582,3.4583,3.4703,3.4704,3.4706,3.4735,3.4734,3.4733,3.4732,3.4849,3.4853,3.4858,0,0,0,0,0,0,0,0,0,0,0,0,0,3.4467,3.4367,3.458,3.4612,3.4616,3.4702,3.4705,3.4707,3.4735,3.4734,3.4733,3.4731,3.4847,3.4853,3.4859,3.4919,0,0,3.4877,3.4879,0,0,0,0,0,0,0,0,3.4461,3.4475,3.4606,3.461,3.4615,3.4703,3.4671,3.4777,3.4735,3.469,3.4732,3.4731,3.4801,3.4811,3.4836,3.4925,3.493,3.4877,3.4881,3.4883,3.4885,0,0,0,0,0,0,0,3.4454,3.447,3.4629,3.4608,3.4613,3.4617,3.4631,3.4691,3.4751,3.4694,3.4696,3.4711,3.4804,3.4831,3.4839,3.4931,3.4877,3.4882,3.4886,3.4888,3.5071,3.5072,0,0,0,0,0,0,3.4442,3.4464,3.4625,3.4632,3.4534,3.4622,3.4638,3.4675,3.475,3.4761,3.4712,3.4711,3.4821,3.4833,3.4844,3.4917,3.4883,3.4889,3.4892,3.5069,3.5071,3.5072,0,0,0,0,0,0,3.4437,3.4456,3.462,3.4549,3.457,3.4628,3.467,3.4679,3.4706,3.4764,3.4774,3.4729,3.4821,3.4835,3.49,3.4921,3.4891,3.4896,3.5068,3.507,3.5072,3.5065,0,0,0,0,0,0,3.4431,3.4454,3.448,3.4549,3.4574,3.4677,3.4671,3.4682,3.4717,3.4718,3.4783,3.4792,3.4821,3.4891,3.4905,3.4929,3.4901,3.5066,3.5069,3.5071,3.5063,3.5066,3.5069,0,0,0,0,0,3.4423,3.4473,3.4482,3.4501,3.4608,3.4678,3.4692,3.4726,3.4718,3.4743,3.478,3.479,3.4917,3.4897,3.4914,3.4939,3.5065,3.5068,3.5071,3.5062,3.5066,3.5069,0,0,0,0,0,0,3.4403,3.4482,3.4493,3.4567,3.4616,3.4683,3.4716,3.4729,3.4779,3.4778,3.4816,3.483,3.4891,3.4922,3.4899,3.4999,3.499,3.4997,3.4978,3.4982,3.4984,3.4975,3.4906,0,0,0,0,0,3.4407,3.4461,3.4526,3.4585,3.4609,3.4658,3.469,3.4712,3.4763,3.4783,3.4824,3.4871,3.4921,3.4953,3.5002,3.5068,3.508,3.5093,3.5096,3.5098,3.5102,3.5136,3.5141,3.5082,3.5082,3.5082,0,0,3.4416,3.4466,3.4497,3.4582,3.4622,3.4673,3.4675,3.473,3.4767,3.479,3.4854,3.4885,3.4939,3.5004,3.5034,3.5031,3.5121,3.5102,3.5103,3.5107,3.5139,3.5145,3.515,3.5084,3.5084,3.5084,0,0,3.4459,3.4504,3.4556,3.4597,3.4658,3.469,3.4702,3.4767,3.479,3.4854,3.4872,3.4915,3.5001,3.5038,3.5068,3.5122,3.5132,3.5136,3.5151,3.5183,3.5187,3.5191,3.5208,3.5214,3.5141,3.5141,3.5141,0,3.4462,3.4543,3.4581,3.4634,3.4669,3.4695,3.4746,3.4782,3.4855,3.4877,3.4873,3.498,3.5019,3.509,3.5103,3.5128,3.514,3.5129,3.5184,3.5189,3.5193,3.5209,3.5215,3.5141,3.5141,3.5141,3.5141,0,3.4541,3.4596,3.4631,3.4703,3.4742,3.4794,3.4836,3.487,3.4888,3.4919,3.4982,3.5029,3.5087,3.5106,3.5124,3.5179,3.5175,3.5177,3.5168,3.5198,3.5214,3.522,3.5141,3.5141,3.5141,3.5141,0,0,3.4575,3.4667,3.4679,3.4711,3.4779,3.4821,3.4872,3.4931,3.4958,3.5007,3.5048,3.5119,3.5121,3.5155,3.5176,3.5205,3.524,3.5203,3.5205,3.5206,3.5301,3.5298,3.5305,3.5248,3.5249,3.525,3.5295,0,3.4625,3.4721,3.4755,3.4832,3.4881,3.4905,3.4949,3.4994,3.5023,3.5067,3.5098,3.5147,3.5147,3.5167,3.5196,3.523,3.5259,3.5227,3.5283,3.5285,3.5268,3.5313,3.5311,3.5352,3.5302,3.5303,3.5304,0,3.4696,3.4747,3.483,3.489,3.4912,3.4951,3.5006,3.5049,3.5098,3.5117,3.5154,3.5173,3.5224,3.5212,3.528,3.5257,3.5282,3.5301,3.5304,3.5309,3.5296,3.5318,3.5366,3.5371,3.5314,3.5313,3.5313,0,3.4709,3.4799,3.4859,3.4886,3.4958,3.4985,3.5015,3.5064,3.5096,3.5143,3.5164,3.5215,3.5242,3.528,3.5311,3.53,3.5375,3.5367,3.5389,3.5388,3.5403,3.5402,3.5454,3.5422,3.5421,3.5421,3.5421,0,3.476,3.4809,3.4866,3.4903,3.4957,3.4995,3.5046,3.5078,3.512,3.5161,3.5184,3.5221,3.526,3.5301,3.5326,3.5376,3.5389,3.5403,3.5409,3.5401,3.5399,3.5417,3.5414,3.5423,3.5423,3.5422,3.5422,0,3.4784,3.4825,3.4892,3.4955,3.4972,3.5008,3.5061,3.5095,3.5125,3.5176,3.519,3.5236,3.5286,3.532,3.5383,3.5399,3.5453,3.546,3.5437,3.544,3.546,3.5457,3.5525,3.5534,3.5496,3.5497,3.5497,0,3.4814,3.4852,3.4919,3.4949,3.498,3.5028,3.5061,3.5098,3.5131,3.5189,3.5216,3.5267,3.531,3.5387,3.5424,3.5471,3.5477,3.5498,3.5485,3.5474,3.5475,3.5472,3.5475,3.5499,3.55,3.55,3.55,0,3.486,3.4878,3.4926,3.4981,3.502,3.5064,3.5108,3.5131,3.5175,3.521,3.5262,3.5295,3.5359,3.5408,3.5459,3.5487,3.5499,3.5504,3.5511,3.5503,3.5488,3.5494,3.5441,3.5502,3.5502,3.5502,3.5502,3.5501,3.4886,3.4921,3.4973,3.5025,3.5062,3.5102,3.5137,3.5172,3.5217,3.5274,3.5292,3.5345,3.5389,3.5459,3.5487,3.5527,3.5525,3.5537,3.5539,3.5541,3.554,3.5482,3.5536,3.5536,3.5536,3.5536,3.5536,0,3.4932,3.4967,3.5014,3.5076,3.5116,3.5127,3.5175,3.5207,3.5254,3.5297,3.5338,3.5396,3.5443,3.5484,3.5532,3.5555,3.5562,3.5566,3.5564,3.557,3.5539,3.5527,3.556,3.556,3.556,3.556,3.556,3.556,3.4961,3.5019,3.5042,3.5117,3.515,3.5204,3.523,3.5266,3.53,3.5364,3.5404,3.5431,3.5471,3.5522,3.5565,3.5575,3.5591,3.5594,3.5605,3.5575,3.5572,3.557,3.5558,3.5597,3.5597,3.5632,3.5632,3.5633]}]]